Miscellaneous Local Product
Issued by NWS North Platte, NE

Home | Current Version | Previous Version | Text Only | Print | Product List | Glossary On
Versions: 1 2 3 4 5 6 7 8 9 10 11 12 13 14 15 16 17 18 19 20 21 22 23 24 25 26 27 28 29 30 31 32 33 34 35 36 37 38 39 40 41 42 43 44 45 46 47 48 49 50
000
AXUS43 KLBF 281110
MISLBF


WESTERN AND NORTH CENTRAL NEBRASKA HOURLY WEATHER ROUNDUP
NATIONAL WEATHER SERVICE NORTH PLATTE NE
500 AM CST FRI NOV 28 2014

***STATIONS NOT REPORTING VARIABLES SUCH AS SKY/WEATHER OR
PRESSURE ARE PROVIDED BY THE NEBRASKA DEPARTMENT OF
ROADS...RAWS...AND APRS NETWORKS...AND ARE NOT UNDER
NATIONAL WEATHER SERVICE QUALITY CONTROL***

...OBSERVATIONS IN AND NEAR THE EASTERN PANHANDLE OF NEBRASKA...

CITY           SKY/WX    TMP DP  RH WIND       PRES   REMARKS
PINE RIDGE     PTCLDY    37  27  67 SW5       29.78F WCI  33
CHADRON        CLEAR    N/A N/A N/A SW6       29.79
ALLIANCE       PTCLDY    28  23  81 SW5       29.85F WCI  23
SIDNEY         PTCLDY    35  25  66 W9        29.92  WCI  28
WHITECLAY        N/A     30  23  74 E9          N/A  WCI  22
CRESCENT LAKE    N/A     38  25  59 S3          N/A
LISCO            N/A     27  22  79 CALM        N/A
BIG SPRINGS      N/A     32  28  84 W5          N/A  WCI  27
$$

...OBSERVATIONS IN NORTH CENTRAL NEBRASKA...

CITY           SKY/WX    TMP DP  RH WIND       PRES   REMARKS
VALENTINE      PTCLDY    33  27  78 SW6       29.80F WCI  28
THEDFORD       CLEAR     30  26  86 W3        29.85F
AINSWORTH      PTCLDY    32  27  81 SW8       29.81F WCI  25
O`NEILL        CLEAR     26  22  84 S6        29.81F WCI  19
ORD            CLEAR     17  14  88 CALM      29.85F
BROKEN BOW     PTCLDY    32  23  69 CALM      29.85F
BROWNLEE         N/A     38  28  66 SW7         N/A  WCI  32
SPRINGVIEW       N/A     23  20  87 CALM        N/A
BREWSTER         N/A     30  26  86 CALM        N/A
SARGENT          N/A     18  15  87 CALM        N/A
COMSTOCK         N/A     35  26  68 W10         N/A  WCI  28
CHAMBERS         N/A     28  19  69 SW3         N/A
EWING            N/A     23  19  85 CALM        N/A
$$

...OBSERVATIONS IN SOUTHWEST NEBRASKA AND FAR NORTHEAST COLORADO...

CITY           SKY/WX    TMP DP  RH WIND       PRES   REMARKS
WRAY           FAIR      31  25  77 W6        29.94F WCI  26
HOLYOKE        FAIR      32  28  86 SW7       29.92F WCI  26
IMPERIAL       PTCLDY    39  24  55 W9        29.92F WCI  33
OGALLALA       CLEAR     26  24  92 SW5       29.91F WCI  20
NORTH PLATTE   CLEAR     20  17  88 NW6       29.90F WCI  12
MCCOOK           N/A     32  24  72 SW3       29.91
LEXINGTON      CLEAR     23  19  85 W5        29.90F WCI  17
PAXTON           N/A     29  25  85 CALM        N/A
BRADY            N/A     26  23  87 CALM        N/A
GOTHENBURG       N/A     28  24  84 NW5         N/A  WCI  23
CALLAWAY         N/A     35  28  75 W3          N/A
$$

...NORTH PLATTE AREA...

CITY           SKY/WX    TMP DP  RH WIND       PRES   REMARKS
AIRPORT        CLEAR     20  17  88 NW6       29.90F WCI  12
DOWNTOWN         N/A     27  24  89 CALM        N/A
$$

...SOME WEATHER OBSERVATIONS FROM AROUND THE REGION...

CITY           SKY/WX    TMP DP  RH WIND       PRES   REMARKS
DENVER         CLOUDY    46  16  30 W9        29.99F
LARAMIE        CLEAR     38  16  40 SW14      30.05F WCI  30
CHEYENNE       MOCLDY    50  14  23 W10       30.00F
SCOTTSBLUFF    PTCLDY    33  25  72 E6        29.86F WCI  28
RAPID CITY     PTCLDY    31  24  75 CALM      29.70F
PIERRE         CLOUDY    19  15  84 E3        29.75F
WINNER         FAIR      42  29  59 SW10      29.77F
SIOUX FALLS    CLOUDY    19  15  84 E5        29.87F WCI  12
OMAHA          PTCLDY    28  22  78 S12       29.97F WCI  18
GRAND ISLAND   CLEAR     25  19  78 SW7       29.90F WCI  17
KANSAS CITY    CLEAR     33  23  66 S14       30.05F WCI  23
WICHITA        PTCLDY    36  25  64 S13       30.04F WCI  27
HAYS           CLEAR     34  21  60 W7        29.95F WCI  28
LIBERAL        CLEAR     27  19  74 SW6       30.02F WCI  20
GOODLAND       PTCLDY    39  21  48 SW9       29.96F WCI  33
$$



USA.gov is the U.S. government's official web portal to all federal, state and local government web resources and services.